Temp
14 15 16 17 19 19 20 21 21 22 22 23 23 23 24 26 26 26 32 31 31 31 30 31 32 33 33 35 34 34 35 33 33 33 33 33 33 32 33 33 33 33 33 32 28
16 16 16 17 18 19 19 20 21 22 22 22 23 23 24 26 25 31 30 30 30 30 32 34 35 35 36 35 35 35 34 33 34 34 34 33 33 33 33 33 32 31 31 30 28
16 16 16 17 17 18 19 20 21 22 22 22 23 23 24 25 30 34 29 30 30 30 32 33 34 36 36 36 35 34 34 34 34 34 34 34 33 33 32 32 33 32 31 30 29
16 16 16 17 18 18 19 20 21 21 22 22 23 23 24 23 32 31 29 30 30 29 32 34 36 36 35 35 35 34 34 35 35 34 33 33 34 33 33 33 34 34 32 31 30
16 17 17 17 18 19 19 20 21 21 22 22 23 23 24 31 33 28 30 30 29 30 33 35 35 35 35 35 35 34 35 36 36 35 34 33 33 33 33 34 33 33 32 31 31
17 17 17 17 18 18 19 20 21 21 22 22 22 23 26 31 28 28 28 28 31 32 34 35 35 35 35 35 34 35 35 36 36 35 34 33 34 32 34 34 32 32 32 32 31
16 16 17 17 17 18 19 20 21 21 22 22 22 22 28 32 29 28 28 30 31 33 35 34 34 35 35 35 35 35 35 36 36 35 35 34 33 32 35 33 32 32 32 32 32
16 16 16 17 18 19 19 21 21 21 22 22 22 21 31 28 28 28 30 30 30 31 33 33 33 35 35 36 36 35 35 34 36 35 34 33 34 36 34 33 33 32 32 32 32
14 14 14 16 18 19 20 21 21 21 21 21 22 25 32 28 30 31 31 33 32 32 32 32 34 35 35 35 35 35 34 34 35 35 35 33 34 35 34 33 33 33 33 32 32
11 11 11 13 17 19 20 20 20 20 19 19 21 27 31 33 31 31 31 32 34 34 33 34 35 35 35 35 34 33 34 35 35 36 35 35 35 36 34 33 33 34 33 33 32
10 9 10 11 14 18 17 18 24 26 24 31 32 31 32 31 30 32 32 33 34 34 34 34 34 34 35 34 33 34 34 34 36 36 34 35 35 36 36 33 33 34 34 33 33
9 9 9 10 12 18 15 25 29 27 31 29 29 29 30 30 33 33 32 33 33 33 34 33 33 36 34 34 34 34 34 35 36 34 34 35 35 36 35 34 33 33 34 34 34
9 9 9 10 13 15 19 25 23 25 31 30 31 32 33 32 34 34 34 34 33 33 33 34 35 34 34 34 34 35 35 35 35 35 35 34 36 35 34 32 32 33 34 34 34
9 9 9 11 15 19 23 23 23 24 33 31 32 32 32 33 33 34 34 35 34 34 34 34 35 33 34 34 35 35 36 35 35 35 34 34 34 35 35 34 32 33 33 34 34
10 10 11 15 19 23 23 22 23 25 33 32 32 31 33 34 34 33 34 34 34 34 33 34 34 34 34 35 35 35 35 35 35 36 35 35 35 35 35 35 35 35 34 33 34
15 15 14 14 15 21 21 22 25 31 31 32 33 33 33 34 34 33 33 35 35 34 34 34 35 34 35 36 35 36 35 36 36 36 35 35 34 34 35 34 34 35 35 34 34
20 21 17 16 26 20 21 27 31 33 33 32 33 34 34 34 34 34 33 33 34 33 34 35 35 36 35 35 37 35 36 35 35 35 34 35 33 34 36 34 33 33 34 34 34
22 21 19 18 19 20 24 31 32 33 34 34 34 34 34 34 35 34 34 34 35 35 34 35 34 35 36 36 36 36 36 35 32 34 35 36 34 35 35 34 34 34 33 32 32
19 17 20 21 20 20 30 33 33 33 33 34 34 34 34 34 35 34 35 35 35 35 34 34 35 36 36 36 36 35 35 37 36 36 35 36 36 36 37 35 35 35 35 34 32
20 25 26 21 21 25 32 29 32 32 33 34 34 35 34 34 34 35 34 34 34 34 35 35 34 36 36 35 35 35 36 35 36 33 33 35 35 35 35 35 35 35 35 35 33
22 30 25 22 23 31 33 32 32 33 32 34 34 34 35 34 35 35 34 33 33 34 34 35 35 35 36 36 36 35 35 35 36 36 34 34 35 37 35 34 34 35 34 34 33
28 31 25 24 31 31 32 31 24 33 33 34 34 35 34 34 34 34 34 33 32 33 34 34 35 34 36 37 36 36 36 36 35 34 35 34 35 37 35 34 33 34 33 34 33
30 30 26 27 32 32 31 32 31 33 32 33 33 33 34 33 33 33 33 32 32 33 33 34 34 33 35 36 35 35 36 37 37 37 34 34 34 36 35 34 33 32 33 33 32
29 30 30 30 29 31 31 31 32 31 31 32 32 33 33 33 33 32 33 32 31 32 24 29 34 33 33 34 34 34 35 35 36 35 35 35 35 36 32 32 31 31 31 32 32
27 27 25 30 30 30 30 30 31 31 31 31 31 31 32 32 32 32 32 32 32 26 30 32 32 33 33 34 33 33 34 35 34 35 34 35 35 35 31 30 29 30 30 30 30
26 26 26 27 26 28 25 29 30 30 30 31 31 30 31 31 31 30 31 31 31 31 31 32 30 31 31 33 33 32 33 34 35 35 35 35 34 32 30 29 29 29 29 29 29
20 20 23 20 27 29 28 28 28 28 29 29 29 30 30 30 29 30 31 31 31 30 29 29 30 30 30 33 32 31 33 34 34 35 34 34 33 32 30 28 27 28 28 28 28
Height
812 810 808 806 805 803 801 800 799 797 796 795 793 792 790 787 786 785 781 782 782 781 781 781 779 777 775 770 771 771 782 794 792 790 787 776 780 776 773 777 777 777 778 781 795
811 809 807 806 804 802 801 800 798 797 796 794 792 791 789 787 785 782 781 781 781 782 781 778 775 773 770 772 772 774 787 792 780 775 779 776 777 777 779 777 781 783 784 788 796
810 809 807 805 803 801 800 798 797 796 795 794 792 791 789 787 783 775 779 779 781 781 782 779 776 771 773 770 775 777 790 779 776 773 771 774 776 772 778 782 773 779 784 788 794
810 808 806 804 802 800 799 797 796 795 794 793 792 791 789 789 791 778 778 778 780 782 782 778 773 773 777 781 775 787 777 774 772 771 773 776 770 774 773 772 768 770 780 787 791
809 806 804 802 800 798 797 796 795 794 793 792 791 790 789 784 776 779 778 777 779 782 780 776 774 775 782 777 776 783 775 768 764 767 769 769 773 774 772 766 769 770 779 784 788
807 804 802 800 798 797 795 794 794 793 792 791 791 790 790 787 778 779 779 779 780 781 779 777 774 774 775 778 782 778 773 767 765 765 766 773 770 773 765 764 770 772 777 781 785
805 802 800 798 796 794 793 792 792 791 791 791 791 791 787 776 779 780 780 780 780 780 777 778 777 775 774 777 775 775 781 768 768 767 768 767 777 775 759 764 770 773 776 779 784
801 799 797 795 793 792 791 791 790 790 790 790 791 792 779 777 778 779 780 780 781 781 780 780 780 775 776 772 772 782 777 789 768 769 767 772 780 757 756 764 768 770 774 778 782
798 796 794 792 791 790 789 789 789 790 790 790 792 790 774 776 776 777 778 777 780 781 782 782 779 777 775 784 787 783 796 792 782 768 771 775 775 758 757 761 765 767 770 775 779
795 793 790 789 788 788 788 789 789 790 791 792 792 791 773 770 774 776 778 777 776 778 780 779 778 783 779 784 805 800 795 788 787 772 771 774 768 753 754 761 760 760 763 769 772
791 789 787 786 785 786 789 791 791 789 788 772 770 772 768 772 775 775 777 776 774 776 786 780 790 793 779 783 789 791 791 791 774 766 775 768 763 753 745 757 758 755 760 763 765
788 785 784 783 783 784 787 783 776 780 775 774 776 775 773 773 772 773 776 778 779 786 781 789 794 772 776 783 787 786 789 781 770 770 773 767 764 750 747 747 754 755 755 757 759
785 782 781 780 781 784 784 781 780 780 771 773 770 769 768 771 767 769 772 771 779 785 784 786 776 773 780 783 788 780 782 780 784 770 763 769 759 757 752 753 751 750 749 751 756
781 779 778 778 785 782 781 779 780 781 770 778 770 767 768 765 771 765 767 769 776 782 780 780 768 782 782 784 778 785 768 774 776 778 791 768 790 760 753 751 755 750 749 747 751
777 775 775 778 781 779 779 778 780 781 788 770 768 765 762 766 763 771 768 769 777 779 782 779 779 782 784 777 770 780 768 773 772 772 773 771 778 761 749 753 749 743 742 744 743
772 772 774 778 780 778 777 779 780 782 798 773 762 767 769 762 763 766 770 767 765 775 773 775 762 771 769 763 766 762 771 764 762 766 786 776 782 770 758 760 750 741 737 736 738
769 770 773 777 774 777 778 776 777 772 759 775 768 763 762 769 768 768 775 779 780 788 784 771 768 761 762 773 757 769 770 785 789 785 786 765 785 772 750 751 751 747 739 735 735
770 771 773 775 776 776 777 770 780 765 759 753 755 759 770 763 764 766 771 776 764 771 777 780 792 767 757 763 768 762 766 783 811 792 776 759 782 765 746 744 742 738 738 739 741
773 775 777 776 775 776 770 767 767 761 757 758 759 769 770 765 764 768 769 766 762 761 783 779 779 754 756 752 757 768 776 753 768 765 780 762 756 749 737 743 740 737 734 737 742
776 773 773 774 774 775 763 778 763 757 756 753 764 759 772 767 772 768 770 768 769 764 756 763 785 752 755 753 757 761 753 774 764 800 802 770 771 764 756 750 744 742 738 736 736
775 764 774 774 775 764 763 765 762 753 755 757 760 762 759 767 763 766 768 770 766 764 761 759 770 766 755 757 756 762 764 763 757 767 785 786 770 740 750 749 750 743 740 738 738
769 765 772 773 767 762 761 765 772 757 752 752 751 754 760 764 767 768 770 767 766 763 769 762 761 774 760 741 744 748 753 751 772 779 767 775 770 732 741 746 748 746 743 740 739
763 764 771 770 767 764 763 762 761 758 761 758 761 757 757 766 777 769 770 768 766 764 770 764 768 782 766 750 747 755 748 745 742 745 769 781 771 733 739 747 750 752 747 742 742
766 768 765 765 766 764 766 768 767 762 764 762 764 759 763 769 766 773 771 769 767 766 781 772 763 773 781 764 758 764 753 750 750 762 756 756 753 741 754 758 756 755 750 745 743
772 777 779 769 771 770 769 770 771 772 764 763 770 769 772 778 774 775 771 767 764 776 771 766 778 766 762 757 759 763 760 753 760 755 764 752 754 744 758 761 761 757 753 750 749
778 780 778 777 778 775 782 776 776 773 774 773 774 774 773 779 778 783 777 775 776 768 769 765 782 773 774 759 757 765 755 750 747 748 746 748 751 747 755 758 761 760 757 756 754
795 793 788 793 777 775 777 780 781 777 775 775 777 776 776 775 776 771 768 768 768 776 778 778 775 778 781 758 758 773 753 747 742 737 745 757 748 747 758 764 766 763 760 760 758
Wind_Speed
10 10 10 9 8 7 7 6 6 6 6 6 7 9 10 11 11 4 5 1 3 5 2 3 4 2 3 3 3 1 3 5 7 6 6 1 3 2 1 4 4 6 2 9 23
10 10 10 10 9 8 8 7 6 5 6 6 7 8 10 12 7 8 5 5 6 4 3 3 1 3 2 2 1 4 3 5 4 5 4 1 4 3 6 6 6 6 7 19 26
11 11 11 11 10 9 8 7 7 6 5 6 7 8 9 9 7 4 2 5 10 6 4 4 3 5 1 2 4 3 4 8 6 6 5 2 5 4 6 5 6 10 13 20 25
12 12 11 11 10 9 8 8 7 6 5 5 6 6 7 3 3 4 1 3 15 7 6 4 5 4 3 3 3 4 2 5 6 2 4 4 2 4 7 4 3 3 15 19 20
12 12 12 11 10 9 8 7 7 6 6 5 5 5 3 7 2 3 4 3 15 10 8 5 5 2 3 5 7 4 10 10 9 3 7 4 6 5 7 6 3 5 15 19 18
14 14 14 12 11 9 8 7 7 6 6 4 3 3 4 9 3 3 3 9 9 12 7 6 2 3 5 4 5 11 11 9 3 3 4 8 6 4 3 4 6 11 16 17 17
16 15 15 13 12 10 9 7 7 6 5 4 2 1 6 5 3 2 3 4 11 8 6 3 2 7 5 6 7 9 11 7 3 1 2 6 9 9 4 8 9 12 13 15 15
17 15 15 14 13 10 8 6 6 5 4 2 2 2 4 3 3 5 6 5 7 4 2 3 2 4 6 7 7 7 7 5 4 3 3 6 9 6 9 11 11 12 14 15 16
17 16 15 14 12 9 5 3 2 1 2 3 1 5 3 2 6 8 8 5 9 7 4 2 3 4 8 8 9 6 6 8 5 2 7 5 12 6 6 12 12 13 15 16 16
17 15 14 12 10 5 2 2 4 4 1 2 4 5 5 6 8 10 7 8 5 10 7 7 6 10 9 9 5 4 8 8 9 3 8 12 17 13 10 13 14 14 15 17 18
18 15 12 10 8 4 7 2 5 5 7 4 3 3 7 5 8 9 10 8 6 10 11 9 10 12 9 2 6 9 11 11 12 7 8 10 14 16 8 13 15 14 14 16 18
18 14 11 8 6 7 6 5 4 4 3 8 7 6 4 1 9 10 11 10 8 11 6 8 13 11 2 6 7 9 11 9 8 2 7 12 17 9 8 10 14 15 14 16 15
16 11 8 5 3 5 9 7 2 3 5 6 4 4 4 8 6 15 15 10 9 8 11 13 5 2 6 8 10 13 9 8 11 11 6 11 3 6 4 1 7 13 15 15 16
17 10 5 3 3 6 5 6 5 2 6 6 7 5 7 5 6 10 15 9 6 8 5 8 5 7 9 8 7 13 4 7 10 10 8 5 6 6 5 4 4 7 13 16 17
16 7 5 14 1 4 4 3 7 4 6 6 7 6 6 6 13 9 12 8 5 5 7 6 7 9 10 10 6 9 5 11 10 13 5 4 8 8 1 6 5 3 8 14 17
12 4 7 7 4 4 1 6 6 6 4 7 7 11 12 8 7 9 11 9 3 8 10 11 3 7 11 8 8 10 13 15 12 9 8 6 6 7 7 9 5 5 5 7 15
3 2 14 7 3 2 5 5 6 4 4 8 9 12 14 10 8 11 13 14 8 7 8 7 13 9 9 13 14 11 15 8 4 7 2 6 2 6 5 10 6 10 9 4 7
6 9 5 5 2 2 7 6 3 3 5 4 7 11 10 11 8 9 11 10 11 9 7 5 8 12 10 8 10 6 9 7 5 4 3 6 4 5 4 3 3 4 6 3 3
8 4 3 2 6 2 6 7 4 3 2 7 12 12 8 10 4 9 9 6 3 8 5 2 4 6 8 5 7 7 7 8 9 7 8 3 3 13 4 4 3 7 8 7 6
0 4 4 2 5 6 6 3 3 3 1 4 7 5 10 11 9 7 7 2 1 3 10 3 6 3 8 4 4 9 5 6 5 3 5 3 4 7 8 6 6 8 10 11 5
4 4 3 2 3 6 2 5 2 4 1 3 3 7 5 6 3 3 4 6 3 1 5 8 7 3 5 11 4 5 9 7 7 5 8 5 3 8 7 8 7 8 9 10 9
4 2 5 2 5 1 1 2 1 3 2 2 3 5 3 2 2 3 2 4 4 3 2 2 6 9 13 6 5 10 12 8 7 5 3 7 5 9 9 7 6 7 8 8 7
1 3 3 3 4 4 4 4 5 4 5 2 3 5 2 3 2 2 2 4 4 4 6 2 6 9 13 12 9 7 8 11 9 6 8 8 2 7 11 9 8 8 9 7 7
3 4 4 2 1 3 3 2 3 6 7 4 3 1 2 1 1 0 2 3 3 4 3 2 12 11 13 15 8 7 8 10 14 10 9 8 11 9 11 8 8 8 9 7 4
4 3 4 3 3 2 2 1 2 2 3 4 3 3 2 3 4 5 4 5 6 5 4 6 13 15 13 14 13 13 17 17 14 17 15 14 7 3 8 6 7 7 8 8 6
4 3 2 2 0 3 2 2 1 3 4 2 0 1 1 4 4 8 4 4 5 2 5 6 10 9 16 16 14 16 16 17 18 17 12 16 11 11 9 6 8 9 9 9 8
6 1 4 1 1 4 2 1 2 3 3 3 3 5 4 4 6 8 9 10 10 9 10 9 8 8 16 15 10 14 18 19 19 18 14 15 6 7 8 7 8 8 9 10 10
Wind_Direction
356 354 350 346 341 338 332 329 327 327 331 332 335 331 327 323 318 302 259 59 183 151 176 239 241 287 234 27 9 280 258 55 38 4 35 75 205 166 187 164 201 155 30 123 153
350 349 347 342 338 335 330 324 320 320 327 331 333 330 330 329 305 251 251 188 179 176 231 265 303 279 145 26 5 320 352 20 337 327 328 147 231 178 211 188 178 154 119 139 157
354 348 343 342 332 331 327 323 315 315 319 325 331 330 332 331 269 117 154 187 187 197 255 292 288 273 283 7 6 6 11 353 6 332 282 300 217 208 235 228 216 187 161 158 165
346 343 341 335 327 320 320 318 315 309 308 317 328 330 326 286 228 108 341 286 200 207 228 246 246 229 278 348 16 274 313 354 321 336 240 251 281 230 241 280 13 191 169 168 175
342 339 336 332 324 318 308 307 309 302 298 306 322 332 317 226 248 6 331 187 176 194 223 241 255 265 286 341 325 263 336 319 333 278 239 222 239 254 252 250 210 197 172 179 181
337 333 330 325 320 310 301 296 298 294 289 290 308 333 269 239 96 41 106 146 181 190 198 233 326 346 283 317 322 328 308 309 340 11 224 235 248 226 192 192 183 172 177 181 185
333 327 324 320 315 305 294 285 288 291 275 268 273 342 254 258 158 68 152 193 175 196 193 179 276 261 337 296 344 307 305 295 24 19 284 263 247 236 199 180 177 175 180 180 185
329 325 324 319 318 307 295 279 285 280 254 241 193 269 263 189 213 235 169 146 176 189 248 143 264 289 296 306 260 300 277 307 59 271 107 253 308 139 165 187 188 185 179 186 185
328 323 317 311 307 303 285 277 287 232 200 156 237 257 165 176 195 170 177 161 155 163 134 153 239 276 255 271 269 210 309 324 343 278 310 246 302 63 182 201 200 190 184 188 189
326 321 316 310 306 298 211 145 110 85 132 231 256 246 206 149 139 154 162 164 161 160 167 209 225 237 228 246 260 349 307 311 315 349 280 283 276 286 190 226 211 199 194 192 195
329 321 314 303 298 165 118 137 202 181 216 301 82 345 108 113 152 177 168 168 170 201 213 203 230 222 243 36 298 293 296 298 304 10 304 303 303 307 257 213 230 211 199 202 202
329 322 310 295 275 176 172 241 357 359 190 227 257 275 231 289 165 164 180 203 206 213 206 206 230 241 233 253 264 266 281 294 306 100 300 330 313 1 345 221 229 231 215 210 208
333 321 307 278 234 185 212 228 218 326 253 150 195 235 194 205 207 171 196 202 212 210 216 250 75 73 208 224 247 250 264 314 335 320 228 322 68 32 53 284 237 228 228 221 216
334 316 277 201 153 173 213 214 219 281 227 126 174 151 178 230 162 149 204 196 200 241 209 247 202 233 236 240 253 282 58 296 309 308 336 342 340 59 36 84 197 229 227 225 213
333 312 224 152 85 201 114 220 209 229 184 146 143 127 166 229 129 171 191 211 218 166 234 109 191 215 233 242 295 286 300 301 294 290 290 162 283 109 107 26 351 242 226 225 225
330 288 165 170 212 217 269 141 173 228 109 142 139 178 179 190 153 142 185 229 310 251 233 270 241 265 251 273 243 281 274 259 248 266 245 78 308 65 30 360 342 342 313 242 213
345 152 154 170 84 208 184 202 214 269 167 150 172 177 191 165 151 178 188 202 227 219 206 201 221 225 242 249 236 240 261 276 248 193 48 76 232 322 30 11 340 327 341 287 214
82 127 166 190 264 133 189 231 219 111 98 121 166 169 183 160 165 176 190 219 216 267 284 291 159 196 170 257 307 262 311 301 294 263 35 129 352 56 14 341 294 2 16 12 184
105 117 168 218 210 226 244 233 70 65 68 155 154 164 165 180 247 199 219 253 332 209 264 230 197 146 201 268 260 137 233 360 289 206 251 74 19 109 70 110 79 52 45 46 145
164 190 105 108 171 227 253 64 92 11 310 210 163 246 161 174 205 210 173 85 247 272 271 341 272 201 130 200 204 267 360 242 196 276 282 72 273 50 41 79 47 39 27 26 53
236 204 107 188 245 232 266 67 66 57 305 277 163 152 122 147 245 178 142 102 8 284 261 274 254 163 206 211 291 178 225 224 300 302 310 260 96 74 47 46 34 32 22 21 31
278 197 150 290 218 251 143 23 256 43 83 118 49 72 81 83 155 170 165 35 18 334 272 223 287 266 272 92 290 273 286 273 255 195 221 307 312 70 55 74 46 31 21 19 33
289 101 181 271 219 174 126 119 36 43 50 43 92 32 61 73 240 276 136 107 26 9 5 26 254 273 252 178 190 230 213 261 278 293 264 289 88 107 73 73 51 35 9 353 359
259 170 154 176 3 302 168 109 125 52 65 56 79 118 162 182 73 47 196 138 353 342 20 247 268 268 281 314 331 283 235 233 269 281 289 230 287 322 64 51 42 34 21 10 24
350 60 4 163 120 38 284 327 163 114 63 27 95 62 9 261 254 257 273 270 212 125 233 277 272 273 272 271 275 276 273 271 250 272 280 301 312 360 79 59 45 32 40 44 27
6 329 157 71 310 245 166 68 334 98 338 112 97 99 305 283 318 309 303 276 291 205 256 277 274 275 270 267 262 267 261 259 256 252 257 266 273 97 106 88 62 50 42 39 21
20 27 290 146 215 248 65 36 51 336 117 45 346 290 254 19 329 307 293 285 279 279 284 277 277 267 267 269 278 268 252 248 254 249 247 255 63 141 111 91 57 46 43 33 21